Dubrovnik, Croatia

1:20 PM CET on February 22, 2018 (GMT +0100)
Cilipi

Weather History for LDDU - December, 2017

Change the Weather History Date:

Friday, December 29, 2017

  Actual Average (LYTV) Record (LYTV)
Temperature  
Mean Temperature 43 °F -  
Max Temperature 47 °F 52 °F 63 °F (2012)
Min Temperature 39 °F 36 °F 26 °F (2008)
Degree Days  
Heating Degree Days 22    
Moisture  
Dew Point 34 °F    
Average Humidity 66    
Maximum Humidity 93    
Minimum Humidity 42    
Precipitation  
Precipitation 0.39 in - - ()
Sea Level Pressure  
Sea Level Pressure 29.68 in    
Wind  
Wind Speed 12 mph ()    
Max Wind Speed 26 mph    
Max Gust Speed 37 mph    
Visibility 7.6 miles    
Events Rain , Thunderstorm    
Averages and records for this station are not official NWS values.
T = Trace of Precipitation, MM = Missing Value Source: Averaged Metar Reports

Daily Weather History Graph

Daily Weather History Graph

Search for Another Location

Airport or City:

Trip Planner

Search our weather history database for the weather conditions in past years. The results will help you decide how hot, cold, wet, or windy it might be!

Date:

Astronomy

Dec. 29, 2017 Rise Set
Actual Time 7:16 AM CET 4:21 PM CET
Civil Twilight 6:44 AM CET 4:53 PM CET
Nautical Twilight 6:08 AM CET 5:29 PM CET
Astronomical Twilight 5:34 AM CET 6:03 PM CET
Moon 1:36 PM CET (12/29) 2:35 AM CET (12/29)
Length of Visible Light 10h 09m
Length of Day
9h 05m
Waxing Gibbous, 81% of the Moon is Illuminated
Dec 29
Waxing Gibbous
Jan 2
Full
Jan 8
Last Quarter
Jan 17
New
Jan 24
First Quarter

Hourly Weather History & Observations

Time (CET) Temp. Windchill Dew Point Humidity Pressure Visibility Wind Dir Wind Speed Gust Speed Precip Events Conditions
12:00 AM 50.0 °F - 35.6 °F 58% 29.53 in 6.2 mi South 12.7 mph - N/A   Mostly Cloudy
12:30 AM 50.0 °F - 33.8 °F 54% 29.53 in 6.2 mi SSW 12.7 mph - N/A   Scattered Clouds
1:00 AM 50 °F - 35 °F 44% 29.57 in 19 mi South 13.4 mph - -   Partly Cloudy
1:00 AM 50.0 °F - 35.6 °F 58% 29.56 in 6.2 mi South 13.8 mph - N/A   Scattered Clouds
1:30 AM 50.0 °F - 35.6 °F 58% 29.56 in 6.2 mi South 10.4 mph - N/A   Mostly Cloudy
2:00 AM 50.0 °F - 35.6 °F 58% 29.56 in 6.2 mi South 9.2 mph - N/A   Mostly Cloudy
2:30 AM 50.0 °F - 33.8 °F 54% 29.56 in 6.2 mi South 10.4 mph - N/A   Mostly Cloudy
3:00 AM 50.0 °F - 35.6 °F 58% 29.56 in 6.2 mi SSE 4.6 mph - N/A   Mostly Cloudy
3:30 AM 48.2 °F - 35.6 °F 62% 29.56 in 6.2 mi ESE 5.8 mph - N/A   Mostly Cloudy
4:00 AM 46 °F - 36 °F 57% 29.58 in 19 mi East 6.7 mph - -   Mostly Cloudy
4:00 AM 46.4 °F 43.5 °F 35.6 °F 66% 29.56 in 6.2 mi East 5.8 mph - N/A   Mostly Cloudy
4:30 AM 44.6 °F 40.7 °F 35.6 °F 71% 29.56 in 6.2 mi East 6.9 mph - N/A   Mostly Cloudy
5:00 AM 44.6 °F 40.7 °F 35.6 °F 71% 29.56 in 6.2 mi East 6.9 mph - N/A   Mostly Cloudy
5:30 AM 46.4 °F 42.9 °F 35.6 °F 66% 29.59 in 6.2 mi East 6.9 mph - N/A   Mostly Cloudy
6:00 AM 46.4 °F 42.4 °F 35.6 °F 66% 29.59 in 6.2 mi East 8.1 mph - N/A   Mostly Cloudy
6:30 AM 44.6 °F 40.2 °F 35.6 °F 71% 29.59 in 6.2 mi East 8.1 mph - N/A   Mostly Cloudy
7:00 AM 45 °F - 36 °F 62% 29.63 in 19 mi East 6.7 mph - -   Partly Cloudy
7:00 AM 46.4 °F 42.4 °F 35.6 °F 66% 29.59 in 6.2 mi East 8.1 mph - N/A   Mostly Cloudy
7:30 AM 46.4 °F 42.9 °F 35.6 °F 66% 29.62 in 6.2 mi ENE 6.9 mph - N/A   Mostly Cloudy
8:00 AM 46.4 °F 41.1 °F 37.4 °F 71% 29.62 in 6.2 mi East 11.5 mph - N/A   Mostly Cloudy
8:30 AM 46.4 °F 42.4 °F 37.4 °F 71% 29.65 in 6.2 mi East 8.1 mph - N/A   Mostly Cloudy
9:00 AM 46.4 °F 42.4 °F 37.4 °F 71% 29.65 in 6.2 mi ENE 8.1 mph - N/A   Mostly Cloudy
9:30 AM 46.4 °F 42.4 °F 37.4 °F 71% 29.65 in 6.2 mi East 8.1 mph - N/A Thunderstorm Thunderstorm
10:00 AM 46 °F - 38 °F 64% 29.69 in 19 mi ENE 8.9 mph - - Rain Light Rain
10:00 AM 46.4 °F 41.5 °F 37.4 °F 71% 29.68 in 6.2 mi ENE 10.4 mph - N/A Rain Light Rain
10:30 AM 46.4 °F 41.1 °F 37.4 °F 71% 29.68 in 6.2 mi ENE 11.5 mph - N/A   Mostly Cloudy
11:00 AM 44.6 °F 38.1 °F 37.4 °F 76% 29.68 in 5.0 mi NE 13.8 mph - N/A Rain Rain
11:30 AM 46.4 °F 41.1 °F 39.2 °F 76% 29.68 in 6.2 mi East 11.5 mph - N/A Rain Light Rain
12:00 PM 46.4 °F 40.7 °F 44.6 °F 93% 29.68 in 6.2 mi East 12.7 mph - N/A Rain Light Rain
12:30 PM 46.4 °F 40.1 °F 41.0 °F 81% 29.68 in 6.2 mi East 15.0 mph - N/A   Scattered Clouds
1:00 PM 44 °F - 38 °F 71% 29.71 in 12 mi NE 13.4 mph - - Rain Light Rain
1:00 PM 42.8 °F 35.1 °F 37.4 °F 81% 29.68 in 6.2 mi NE 16.1 mph - N/A Rain Light Rain
1:30 PM 41.0 °F 31.1 °F 35.6 °F 81% 29.71 in 6.2 mi NNE 23.0 mph - N/A Rain Light Rain
2:00 PM 39.2 °F 29.0 °F 35.6 °F 87% 29.71 in 5.0 mi NNE 21.9 mph - N/A Rain Rain
3:00 PM 39.2 °F 28.3 °F 33.8 °F 81% 29.71 in 6.2 mi NNE 25.3 mph - N/A Rain Light Rain
3:30 PM 41.0 °F 30.5 °F 33.8 °F 76% 29.71 in 6.2 mi NNE 26.5 mph - N/A   Partly Cloudy
4:00 PM 42 °F - 33 °F 60% 29.76 in 25 mi NNE 24.6 mph - -   Partly Cloudy
4:00 PM 41.0 °F 30.9 °F 33.8 °F 76% 29.74 in 6.2 mi NNE 24.2 mph 36.8 mph N/A   Scattered Clouds
4:30 PM 41.0 °F 31.4 °F 32.0 °F 70% 29.74 in 6.2 mi NNE 21.9 mph - N/A   Mostly Cloudy
5:00 PM 41.0 °F 31.6 °F 32.0 °F 70% 29.77 in 6.2 mi NNE 20.7 mph - N/A   Mostly Cloudy
5:30 PM 41.0 °F 31.1 °F 32.0 °F 70% 29.77 in 6.2 mi NNE 23.0 mph 34.5 mph N/A   Mostly Cloudy
6:30 PM 42.8 °F 34.3 °F 32.0 °F 66% 29.80 in 6.2 mi NNE 19.6 mph - N/A   Mostly Cloudy
7:00 PM 42 °F - 31 °F 54% 29.83 in 25 mi NNE 20.1 mph - -   Partly Cloudy
7:00 PM 42.8 °F 34.3 °F 32.0 °F 66% 29.80 in 6.2 mi North 19.6 mph - N/A   Overcast
7:30 PM 42.8 °F 34.0 °F 30.2 °F 61% 29.83 in 6.2 mi NNE 20.7 mph - N/A   Mostly Cloudy
8:00 PM 42.8 °F 33.5 °F 30.2 °F 61% 29.83 in 6.2 mi NNE 23.0 mph - N/A   Mostly Cloudy
8:30 PM 42.8 °F 33.5 °F 30.2 °F 61% 29.83 in 6.2 mi NNE 23.0 mph - N/A   Mostly Cloudy
9:00 PM 42.8 °F 33.8 °F 28.4 °F 57% 29.83 in 6.2 mi NNE 21.9 mph 33.4 mph N/A   Partly Cloudy
9:30 PM 42.8 °F 33.5 °F 26.6 °F 53% 29.83 in 6.2 mi NNE 23.0 mph 35.7 mph N/A   Partly Cloudy
10:00 PM 42 °F - 27 °F 42% 29.86 in 19 mi NNE 22.4 mph - -  
10:30 PM 42.8 °F 33.8 °F 28.4 °F 57% 29.86 in - NNE 21.9 mph - N/A   Clear
11:00 PM 41.0 °F 31.9 °F 26.6 °F 57% 29.86 in - NNE 19.6 mph - N/A   Clear
11:30 PM 41.0 °F 32.5 °F 28.4 °F 61% 29.86 in - NNE 17.3 mph - N/A   Clear